Total_Precipitation_Accumulation
0.16 0.17 0.16 0.19 0.15 0.09 0.03 0.01 0.01 0.00 0.00 0.01 0.01 0.01 0.01 0.02 0.02 0.08 0.09 0.08 0.08 0.12 0.22 0.43 0.55 0.58 0.70 0.73 0.67 0.62 0.60 0.60 0.64 0.69 0.70 0.70 0.66 0.64 0.65 0.66 0.67 0.75 0.83 0.85 0.86 0.81 0.77 0.74 0.73
0.17 0.23 0.26 0.25 0.13 0.06 0.02 0.01 0.01 0.00 0.00 0.01 0.02 0.01 0.01 0.02 0.02 0.04 0.08 0.07 0.09 0.14 0.22 0.31 0.51 0.57 0.72 0.76 0.69 0.67 0.64 0.62 0.66 0.71 0.70 0.72 0.75 0.74 0.68 0.66 0.71 0.76 0.87 0.92 0.85 0.77 0.76 0.76 0.72
0.28 0.34 0.33 0.26 0.11 0.03 0.02 0.01 0.01 0.01 0.00 0.01 0.01 0.01 0.01 0.02 0.03 0.05 0.06 0.08 0.11 0.14 0.19 0.33 0.54 0.59 0.71 0.79 0.79 0.75 0.73 0.72 0.72 0.73 0.68 0.71 0.75 0.74 0.70 0.69 0.74 0.76 0.81 0.81 0.80 0.77 0.79 0.75 0.69
0.43 0.50 0.40 0.26 0.08 0.02 0.01 0.01 0.01 0.01 0.01 0.01 0.01 0.02 0.02 0.02 0.03 0.04 0.06 0.09 0.11 0.16 0.21 0.38 0.60 0.72 0.78 0.81 0.86 0.83 0.80 0.82 0.84 0.80 0.78 0.81 0.82 0.79 0.73 0.69 0.69 0.71 0.76 0.78 0.73 0.73 0.76 0.77 0.70
0.56 0.58 0.41 0.21 0.06 0.02 0.01 0.01 0.01 0.02 0.01 0.01 0.01 0.02 0.04 0.03 0.03 0.04 0.09 0.11 0.12 0.18 0.25 0.40 0.68 0.86 0.88 0.87 0.91 0.92 0.94 0.97 1.00 0.96 0.94 0.94 0.91 0.89 0.86 0.80 0.71 0.66 0.65 0.68 0.71 0.70 0.72 0.77 0.71
0.71 0.62 0.35 0.13 0.06 0.03 0.01 0.02 0.02 0.03 0.02 0.01 0.02 0.03 0.06 0.07 0.06 0.09 0.14 0.19 0.19 0.23 0.32 0.49 0.83 0.98 0.98 0.97 1.01 1.02 1.02 1.05 1.06 1.05 1.03 1.01 0.96 0.92 0.96 0.91 0.78 0.66 0.57 0.55 0.58 0.61 0.66 0.69 0.68
0.70 0.56 0.27 0.11 0.07 0.05 0.03 0.03 0.03 0.04 0.04 0.03 0.03 0.05 0.07 0.11 0.10 0.13 0.20 0.29 0.35 0.35 0.42 0.60 0.83 1.04 1.12 1.11 1.08 1.04 1.07 1.10 1.09 1.08 1.06 1.02 0.94 0.93 0.93 0.90 0.81 0.69 0.61 0.56 0.53 0.54 0.58 0.60 0.63
0.67 0.62 0.31 0.14 0.10 0.08 0.04 0.03 0.04 0.06 0.06 0.04 0.04 0.06 0.06 0.10 0.14 0.20 0.30 0.41 0.49 0.54 0.62 0.75 0.92 1.03 1.10 1.14 1.12 1.07 1.04 1.04 1.07 1.07 1.05 0.94 0.89 0.88 0.86 0.81 0.75 0.68 0.67 0.63 0.56 0.54 0.55 0.51 0.49
0.79 0.79 0.36 0.12 0.10 0.08 0.04 0.05 0.05 0.06 0.09 0.07 0.07 0.06 0.07 0.11 0.21 0.33 0.47 0.63 0.71 0.77 0.91 1.00 1.12 1.19 1.24 1.24 1.17 1.19 1.14 1.13 1.10 1.07 1.01 0.96 0.91 0.86 0.82 0.75 0.70 0.69 0.69 0.64 0.58 0.53 0.55 0.50 0.44
0.91 0.77 0.32 0.10 0.09 0.09 0.06 0.06 0.07 0.10 0.11 0.09 0.11 0.11 0.12 0.20 0.32 0.39 0.44 0.57 0.69 0.77 0.95 1.05 1.22 1.30 1.37 1.34 1.35 1.35 1.21 1.17 1.12 1.00 0.92 0.92 0.91 0.88 0.79 0.75 0.70 0.68 0.70 0.70 0.69 0.61 0.54 0.47 0.40
0.71 0.52 0.23 0.11 0.10 0.13 0.12 0.10 0.09 0.13 0.14 0.09 0.11 0.14 0.17 0.28 0.37 0.42 0.43 0.53 0.63 0.78 0.96 1.15 1.29 1.45 1.51 1.48 1.45 1.42 1.33 1.25 1.20 1.08 1.03 1.04 1.06 0.99 0.93 0.85 0.78 0.76 0.74 0.79 0.80 0.80 0.68 0.60 0.54
0.53 0.34 0.22 0.15 0.13 0.16 0.17 0.15 0.13 0.13 0.09 0.07 0.08 0.13 0.21 0.29 0.34 0.41 0.49 0.60 0.75 0.93 1.05 1.28 1.50 1.64 1.69 1.68 1.59 1.45 1.34 1.24 1.23 1.18 1.15 1.17 1.14 1.04 0.95 0.90 0.82 0.78 0.77 0.79 0.83 0.85 0.79 0.73 0.66
0.51 0.31 0.23 0.20 0.18 0.18 0.19 0.18 0.15 0.14 0.09 0.11 0.15 0.17 0.23 0.26 0.34 0.46 0.59 0.71 0.82 0.93 1.08 1.35 1.59 1.74 1.81 1.93 1.88 1.62 1.45 1.30 1.25 1.26 1.18 1.11 1.09 1.03 0.95 0.87 0.79 0.71 0.68 0.68 0.70 0.71 0.73 0.72 0.68
0.49 0.36 0.27 0.25 0.26 0.22 0.21 0.18 0.16 0.13 0.13 0.20 0.25 0.24 0.25 0.25 0.32 0.50 0.65 0.76 0.83 0.93 1.10 1.36 1.64 1.83 1.93 1.91 1.97 1.89 1.74 1.55 1.42 1.30 1.21 1.12 1.06 1.02 0.93 0.84 0.74 0.65 0.58 0.53 0.52 0.50 0.55 0.59 0.57
0.53 0.53 0.46 0.35 0.31 0.28 0.29 0.26 0.14 0.10 0.17 0.26 0.32 0.34 0.34 0.33 0.34 0.46 0.60 0.70 0.77 0.93 1.20 1.45 1.74 1.99 2.04 1.96 1.93 2.00 2.02 1.89 1.72 1.51 1.35 1.24 1.13 1.05 1.01 0.93 0.85 0.78 0.70 0.63 0.58 0.53 0.49 0.50 0.50
0.82 0.88 0.76 0.45 0.36 0.35 0.48 0.36 0.12 0.12 0.23 0.29 0.35 0.40 0.41 0.41 0.38 0.41 0.57 0.72 0.86 1.00 1.19 1.52 1.81 2.00 2.00 2.06 2.10 2.04 2.08 2.09 1.89 1.70 1.57 1.38 1.22 1.11 1.09 1.02 0.89 0.85 0.86 0.80 0.75 0.68 0.63 0.54 0.49
1.27 1.10 0.72 0.46 0.40 0.44 0.52 0.35 0.15 0.18 0.27 0.33 0.37 0.41 0.47 0.51 0.48 0.46 0.54 0.67 0.87 1.00 1.13 1.40 1.72 1.87 1.95 2.04 2.22 2.28 2.28 2.19 2.03 1.82 1.65 1.55 1.40 1.21 1.10 1.06 0.97 0.88 0.85 0.82 0.81 0.78 0.75 0.70 0.63
1.09 0.79 0.59 0.45 0.40 0.48 0.48 0.32 0.20 0.24 0.31 0.35 0.36 0.42 0.50 0.51 0.45 0.47 0.56 0.68 0.89 1.06 1.21 1.39 1.71 1.91 2.07 2.18 2.24 2.36 2.40 2.32 2.19 2.05 1.83 1.73 1.63 1.47 1.28 1.15 1.08 1.02 0.95 0.87 0.79 0.78 0.79 0.77 0.72
0.77 0.66 0.58 0.42 0.35 0.48 0.44 0.30 0.23 0.25 0.31 0.35 0.37 0.44 0.48 0.49 0.51 0.56 0.66 0.80 0.96 1.09 1.22 1.36 1.65 1.81 2.01 2.07 2.01 1.94 2.04 2.07 2.10 2.11 2.06 1.95 1.87 1.76 1.60 1.41 1.27 1.22 1.11 1.00 0.89 0.81 0.79 0.77 0.74
0.87 0.83 0.62 0.47 0.39 0.50 0.45 0.30 0.23 0.24 0.30 0.33 0.37 0.43 0.47 0.52 0.59 0.63 0.75 0.90 0.97 1.01 1.14 1.31 1.54 1.71 1.82 1.79 1.76 1.75 1.77 1.86 1.93 2.00 2.08 2.10 2.04 1.90 1.78 1.63 1.47 1.34 1.26 1.13 1.01 0.91 0.84 0.79 0.71
0.95 0.82 0.65 0.59 0.57 0.63 0.61 0.53 0.30 0.28 0.30 0.32 0.37 0.42 0.44 0.49 0.53 0.55 0.67 0.91 1.02 1.01 1.10 1.23 1.44 1.60 1.78 1.92 1.96 1.95 2.07 2.09 1.99 1.90 1.93 2.00 1.99 1.91 1.78 1.67 1.61 1.53 1.42 1.29 1.18 1.08 1.00 0.92 0.80
0.97 0.62 0.60 0.67 0.94 1.12 0.90 1.00 0.47 0.33 0.35 0.32 0.37 0.45 0.42 0.47 0.52 0.52 0.60 0.82 1.00 0.99 1.14 1.29 1.47 1.69 1.80 1.99 2.02 1.83 1.76 1.81 1.71 1.68 1.67 1.80 1.93 1.92 1.82 1.76 1.72 1.60 1.49 1.36 1.27 1.26 1.22 1.20 1.14
0.70 0.57 0.70 0.83 1.08 1.26 0.96 1.06 0.59 0.35 0.44 0.41 0.40 0.48 0.45 0.47 0.52 0.51 0.55 0.74 0.96 1.05 1.16 1.36 1.50 1.72 1.88 1.96 1.98 1.83 1.67 1.59 1.66 1.79 1.84 1.80 1.82 1.91 1.88 1.77 1.74 1.65 1.51 1.43 1.36 1.27 1.27 1.27 1.27
0.69 0.90 1.17 1.32 1.77 1.94 0.91 0.86 0.68 0.54 0.57 0.51 0.47 0.52 0.51 0.51 0.55 0.58 0.60 0.74 0.90 1.03 1.17 1.32 1.54 1.70 1.92 2.01 1.97 1.77 1.60 1.51 1.56 1.65 1.85 1.94 1.92 1.94 1.95 1.86 1.78 1.68 1.51 1.42 1.42 1.36 1.29 1.27 1.26
1.14 1.72 2.67 2.97 2.92 1.78 0.53 0.58 0.69 0.58 0.53 0.55 0.56 0.56 0.55 0.57 0.61 0.61 0.62 0.71 0.80 0.94 1.11 1.25 1.43 1.70 1.89 2.02 1.95 1.74 1.58 1.48 1.47 1.51 1.62 1.75 1.85 1.91 1.92 1.89 1.79 1.67 1.56 1.42 1.41 1.42 1.38 1.32 1.36
1.21 1.41 1.94 2.08 1.55 0.77 0.42 0.53 0.57 0.51 0.44 0.46 0.49 0.53 0.48 0.57 0.66 0.65 0.62 0.68 0.76 0.88 1.04 1.21 1.35 1.60 1.84 1.96 1.94 1.83 1.61 1.50 1.46 1.49 1.52 1.57 1.54 1.59 1.75 1.90 1.94 1.75 1.56 1.47 1.42 1.39 1.35 1.35 1.36
1.13 1.15 0.97 1.31 0.96 0.65 0.57 0.49 0.42 0.37 0.35 0.40 0.46 0.54 0.55 0.59 0.70 0.72 0.69 0.73 0.77 0.87 1.00 1.17 1.32 1.49 1.74 1.95 1.96 1.92 1.74 1.58 1.48 1.46 1.48 1.56 1.54 1.49 1.56 1.73 1.88 1.96 1.88 1.70 1.57 1.49 1.40 1.41 1.43
0.99 1.08 1.30 1.79 1.50 0.88 0.53 0.43 0.50 0.44 0.40 0.41 0.47 0.57 0.57 0.59 0.67 0.73 0.73 0.75 0.80 0.91 1.03 1.14 1.29 1.41 1.60 1.81 1.92 1.91 1.93 1.75 1.63 1.56 1.50 1.49 1.54 1.53 1.47 1.51 1.61 1.72 1.81 1.83 1.77 1.68 1.53 1.47 1.44
1.08 1.35 1.63 1.67 1.32 1.10 0.74 0.56 0.54 0.47 0.41 0.41 0.43 0.53 0.58 0.63 0.69 0.78 0.80 0.78 0.81 0.95 1.07 1.12 1.21 1.38 1.55 1.65 1.73 1.81 1.95 1.84 1.76 1.71 1.61 1.50 1.47 1.54 1.54 1.50 1.56 1.61 1.64 1.68 1.76 1.74 1.68 1.66 1.60
0.93 1.16 1.38 1.70 1.32 0.87 0.84 0.67 0.46 0.38 0.36 0.35 0.37 0.47 0.55 0.60 0.68 0.71 0.76 0.78 0.77 0.87 1.05 1.15 1.21 1.26 1.45 1.59 1.66 1.73 1.87 1.93 1.81 1.76 1.70 1.55 1.43 1.44 1.50 1.52 1.53 1.60 1.65 1.66 1.73 1.72 1.69 1.76 1.74